Weather History for Adak, AK

Change the Weather History Date:

Wednesday, January 2, 2013

  Actual Average Record
Temperature  
Mean Temperature 30 °F -  
Max Temperature 33 °F 38 °F 45 °F (1951)
Min Temperature 28 °F 29 °F 12 °F (2011)
Degree Days  
Heating Degree Days 34    
Moisture  
Dew Point 27 °F    
Average Humidity 81    
Maximum Humidity 93    
Minimum Humidity 65    
Precipitation  
Precipitation 0.00 in - - ()
Sea Level Pressure  
Sea Level Pressure 29.07 in    
Wind  
Wind Speed 13 mph (WNW)    
Max Wind Speed 25 mph    
Max Gust Speed 31 mph    
Visibility 8 miles    
Events      
Averages and records for this station are not official NWS values.
T = Trace of Precipitation, MM = Missing Value Source: NWS Daily Summary

Daily Weather History Graph

Daily Weather History Graph

Search for Another Location

Airport:

Trip Planner

Search our weather history database for the weather conditions in past years. The results will help you decide how hot, cold, wet, or windy it might be!

Date:

Astronomy

Jan. 02, 2013 Rise Set
Actual Time 9:53 AM HAST 5:48 PM HAST
Civil Twilight 9:13 AM HAST 6:28 PM HAST
Nautical Twilight 8:30 AM HAST 7:11 PM HAST
Astronomical Twilight 7:49 AM HAST 7:52 PM HAST
Moon No Moon Rise 11:59 AM HAST (1/2)
Length of Visible Light 9h 15m
Length of Day
7h 54m
Waning Gibbous, 73% of the Moon is Illuminated
Jan 2
Waning Gibbous
Jan 4
Last Quarter
Jan 11
New
Jan 18
First Quarter
Jan 26
Full

Hourly Weather History & Observations

Time (HAST) Temp. Windchill Dew Point Humidity Pressure Visibility Wind Dir Wind Speed Gust Speed Precip Events Conditions
2:16 AM 33.8 °F 22.2 °F 28.4 °F 81% 28.91 in 4.0 mi NNW 20.7 mph 28.8 mph N/A   Overcast
2:36 AM 33.8 °F 21.0 °F 30.2 °F 87% 28.90 in 3.0 mi North 25.3 mph 31.1 mph N/A   Overcast
2:56 AM 33.8 °F 21.3 °F 30.2 °F 87% 28.91 in 3.0 mi NNW 24.2 mph 28.8 mph N/A   Overcast
3:16 AM 33.8 °F 23.9 °F 30.2 °F 87% 28.93 in 10.0 mi NNW 15.0 mph 24.2 mph N/A   Mostly Cloudy
3:36 AM 33.8 °F 22.8 °F 30.2 °F 87% 28.94 in 2.0 mi North 18.4 mph 25.3 mph N/A   Overcast
3:56 AM 33.8 °F 23.9 °F 30.2 °F 87% 28.95 in 3.0 mi North 15.0 mph 24.2 mph N/A   Overcast
4:16 AM 33.8 °F 22.2 °F 28.4 °F 81% 28.96 in 8.0 mi NNW 20.7 mph 25.3 mph N/A   Mostly Cloudy
4:36 AM 33.8 °F 23.5 °F 28.4 °F 81% 28.97 in 3.0 mi NNW 16.1 mph - N/A   Overcast
4:56 AM 33.8 °F 22.5 °F 28.4 °F 81% 28.97 in 8.0 mi NNW 19.6 mph 24.2 mph N/A   Mostly Cloudy
5:16 AM 33.8 °F 22.8 °F 28.4 °F 81% 28.98 in 10.0 mi NNW 18.4 mph - N/A   Mostly Cloudy
5:36 AM 33.8 °F 23.5 °F 28.4 °F 81% 28.98 in 5.0 mi NNW 16.1 mph 24.2 mph N/A   Mostly Cloudy
5:56 AM 33.8 °F 26.4 °F 26.6 °F 75% 28.99 in 10.0 mi NW 9.2 mph 20.7 mph N/A   Overcast
6:16 AM 33.8 °F 26.4 °F 24.8 °F 70% 28.99 in 10.0 mi NW 9.2 mph - N/A   Mostly Cloudy
6:36 AM 33.8 °F 27.0 °F 24.8 °F 70% 29.00 in 10.0 mi NW 8.1 mph - N/A   Overcast
6:56 AM 32.0 °F 24.8 °F 23.0 °F 69% 29.00 in 10.0 mi NW 8.1 mph - N/A   Overcast
7:16 AM 33.8 °F 22.2 °F 26.6 °F 75% 29.01 in 4.0 mi North 20.7 mph - N/A   Overcast
7:36 AM 32.0 °F 22.5 °F 24.8 °F 75% 29.01 in 8.0 mi NNW 12.7 mph 18.4 mph N/A   Mostly Cloudy
7:56 AM 32.0 °F 23.0 °F 24.8 °F 75% 29.02 in 10.0 mi NNW 11.5 mph - N/A   Mostly Cloudy
8:16 AM 33.8 °F 26.4 °F 26.6 °F 75% 29.02 in 8.0 mi NW 9.2 mph 16.1 mph N/A   Overcast
8:36 AM 32.0 °F 22.1 °F 24.8 °F 75% 29.03 in 8.0 mi NW 13.8 mph 18.4 mph N/A   Mostly Cloudy
8:56 AM 32.0 °F 28.7 °F 26.6 °F 80% 29.04 in 4.0 mi West 3.5 mph - N/A   Overcast
9:16 AM 30.2 °F 18.5 °F 26.6 °F 86% 29.05 in 4.0 mi NNW 17.3 mph 20.7 mph N/A   Mostly Cloudy
9:36 AM 30.2 °F 21.3 °F 26.6 °F 86% 29.05 in 7.0 mi NW 10.4 mph - N/A   Mostly Cloudy
9:56 AM 32.0 °F 24.8 °F 23.0 °F 69% 29.06 in 10.0 mi NNW 8.1 mph - N/A   Mostly Cloudy
10:16 AM 33.8 °F 23.5 °F 23.0 °F 65% 29.07 in 10.0 mi NNW 16.1 mph 19.6 mph N/A   Overcast
10:36 AM 32.0 °F 23.6 °F 24.8 °F 75% 29.08 in 4.0 mi NNW 10.4 mph - N/A   Mostly Cloudy
10:56 AM 33.8 °F 30.8 °F 24.8 °F 70% 29.09 in 10.0 mi WNW 3.5 mph - N/A   Overcast
11:16 AM 32.0 °F 25.6 °F 26.6 °F 80% 29.09 in 1.8 mi West 6.9 mph - N/A   Overcast
11:36 AM 32.0 °F 27.5 °F 26.6 °F 80% 29.10 in 4.0 mi WSW 4.6 mph - N/A   Mostly Cloudy
11:56 AM 33.8 °F 25.8 °F 24.8 °F 70% 29.10 in 10.0 mi WSW 10.4 mph 16.1 mph N/A   Overcast
12:16 PM 33.8 °F 30.8 °F 23.0 °F 65% 29.10 in 10.0 mi WNW 3.5 mph - N/A   Mostly Cloudy
12:36 PM 33.8 °F 29.6 °F 24.8 °F 70% 29.10 in 10.0 mi West 4.6 mph - N/A   Mostly Cloudy
12:56 PM 33.8 °F 23.2 °F 28.4 °F 81% 29.10 in 7.0 mi West 17.3 mph - N/A   Overcast
1:16 PM 33.8 °F 28.6 °F 26.6 °F 75% 29.10 in 3.0 mi WNW 5.8 mph - N/A   Mostly Cloudy
1:36 PM 33.8 °F 26.4 °F 24.8 °F 70% 29.10 in 10.0 mi West 9.2 mph - N/A   Mostly Cloudy
1:56 PM 33.8 °F 29.6 °F 24.8 °F 70% 29.10 in 10.0 mi West 4.6 mph - N/A   Mostly Cloudy
2:16 PM 33.8 °F 29.6 °F 24.8 °F 70% 29.10 in 10.0 mi West 4.6 mph - N/A   Overcast
2:36 PM 33.8 °F 26.4 °F 24.8 °F 70% 29.10 in 10.0 mi West 9.2 mph - N/A   Overcast
2:56 PM 33.8 °F 24.8 °F 28.4 °F 81% 29.10 in 10.0 mi West 12.7 mph 18.4 mph N/A   Overcast
3:16 PM 33.8 °F 25.8 °F 28.4 °F 81% 29.10 in 3.0 mi WSW 10.4 mph - N/A   Mostly Cloudy
3:36 PM 32.0 °F 22.1 °F 28.4 °F 87% 29.10 in 10.0 mi West 13.8 mph - N/A   Partly Cloudy
3:56 PM 32.0 °F 24.2 °F 26.6 °F 80% 29.10 in 10.0 mi West 9.2 mph - N/A   Clear
4:16 PM 30.2 °F 21.9 °F 26.6 °F 86% 29.11 in 10.0 mi West 9.2 mph - N/A   Scattered Clouds
4:36 PM 32.0 °F 26.4 °F 28.4 °F 87% 29.11 in 10.0 mi West 5.8 mph - N/A   Mostly Cloudy
4:56 PM 30.2 °F 24.3 °F 24.8 °F 80% 29.11 in 10.0 mi WSW 5.8 mph - N/A   Partly Cloudy
5:16 PM 30.2 °F - 26.6 °F 86% 29.11 in 10.0 mi Calm Calm - N/A   Mostly Cloudy
5:36 PM 30.2 °F - 28.4 °F 93% 29.12 in 10.0 mi Calm Calm - N/A   Overcast
5:56 PM 30.2 °F 25.4 °F 26.6 °F 86% 29.11 in 10.0 mi WSW 4.6 mph - N/A   Scattered Clouds
6:16 PM 30.2 °F 24.3 °F 26.6 °F 86% 29.12 in 10.0 mi WSW 5.8 mph - N/A   Partly Cloudy
6:36 PM 30.2 °F 23.4 °F 26.6 °F 86% 29.12 in 10.0 mi WSW 6.9 mph - N/A   Scattered Clouds
6:56 PM 30.2 °F 20.8 °F 28.4 °F 93% 29.12 in 10.0 mi WSW 11.5 mph - N/A   Scattered Clouds
7:16 PM 30.2 °F 23.4 °F 26.6 °F 86% 29.12 in 10.0 mi West 6.9 mph - N/A   Clear
7:36 PM 28.4 °F 21.2 °F 26.6 °F 93% 29.12 in 10.0 mi West 6.9 mph - N/A   Scattered Clouds
7:56 PM 30.2 °F 21.9 °F 26.6 °F 86% 29.12 in 10.0 mi West 9.2 mph - N/A   Scattered Clouds
8:16 PM 30.2 °F 22.6 °F 26.6 °F 86% 29.12 in 10.0 mi WSW 8.1 mph - N/A   Scattered Clouds
8:36 PM 30.2 °F 26.7 °F 26.6 °F 86% 29.12 in 10.0 mi WSW 3.5 mph - N/A   Overcast
8:56 PM 32.0 °F 22.5 °F 28.4 °F 87% 29.13 in 10.0 mi WSW 12.7 mph 18.4 mph N/A   Mostly Cloudy
9:16 PM 30.2 °F 21.9 °F 28.4 °F 93% 29.13 in 10.0 mi WSW 9.2 mph - N/A   Partly Cloudy
9:36 PM 30.2 °F 22.6 °F 28.4 °F 93% 29.13 in 10.0 mi WSW 8.1 mph - N/A   Scattered Clouds
9:56 PM 30.2 °F 24.3 °F 26.6 °F 86% 29.13 in 10.0 mi WSW 5.8 mph - N/A   Scattered Clouds
10:16 PM 33.8 °F 26.4 °F 28.4 °F 81% 29.13 in 9.0 mi WSW 9.2 mph - N/A   Mostly Cloudy
10:36 PM 30.2 °F - 26.6 °F 86% 29.13 in 10.0 mi Calm Calm - N/A   Partly Cloudy
10:56 PM 30.2 °F - 26.6 °F 86% 29.13 in 10.0 mi Calm Calm - N/A   Mostly Cloudy
11:16 PM 30.2 °F 23.4 °F 28.4 °F 93% 29.13 in 9.0 mi WSW 6.9 mph - N/A   Overcast
11:36 PM 32.0 °F 20.5 °F 28.4 °F 87% 29.13 in 10.0 mi WSW 18.4 mph - N/A   Mostly Cloudy
11:56 PM 33.8 °F 25.3 °F 28.4 °F 81% 29.13 in 10.0 mi WSW 11.5 mph - N/A   Partly Cloudy